When you browse on this site, cookies collect data to enhance your experience and personalize the content and advertising you see.
Visit our Privacy Policy to learn more. By continuing to use the site, you agree to this use of cookies and data.
  • In Sweden
  • List of Countries
  • For 7 days
  • Water Temperature
  • Satellite Maps
  • Weather Map
  • Weather Widgets
  • user-avatar
    Login

    Hourly Weather Hyde

    Today, 17 June, Monday

    Time Temperature Precipitation Wind Pressure Humidity
    00:00 +11°C° 0 mm 6 mps 747 mmHg 85%
    01:00 +11°C° 0 mm 6 mps 747 mmHg 85%
    02:00 +11°C° 0 mm 6 mps 747 mmHg 85%
    03:00 +11°C° 0 mm 6 mps 747 mmHg 86%
    04:00 +11°C° 0.1 mm 6 mps 747 mmHg 86%
    05:00 +11°C° 0.1 mm 6 mps 747 mmHg 86%
    06:00 +12°C° 0.1 mm 5 mps 747 mmHg 87%
    07:00 +12°C° 0.1 mm 5 mps 748 mmHg 86%
    08:00 +13°C° 0.1 mm 5 mps 748 mmHg 85%
    09:00 +13°C° 0.1 mm 5 mps 748 mmHg 85%
    10:00 +14°C° 0.3 mm 5 mps 748 mmHg 85%
    11:00 +14°C° 0.3 mm 5 mps 748 mmHg 86%
    12:00 +14°C° 0.3 mm 5 mps 748 mmHg 86%
    13:00 +14°C° 0.1 mm 5 mps 747 mmHg 84%
    14:00 +14°C° 0.1 mm 6 mps 747 mmHg 82%
    15:00 +15°C° 0.1 mm 6 mps 747 mmHg 80%
    16:00 +15°C° 0 mm 6 mps 747 mmHg 78%
    17:00 +16°C° 0 mm 5 mps 747 mmHg 76%
    18:00 +16°C° 0 mm 5 mps 747 mmHg 74%
    19:00 +15°C° 0 mm 4 mps 747 mmHg 75%
    20:00 +14°C° 0 mm 4 mps 748 mmHg 77%
    21:00 +12°C° 0 mm 3 mps 748 mmHg 78%
    22:00 +12°C° 0 mm 3 mps 748 mmHg 79%
    23:00 +11°C° 0 mm 3 mps 748 mmHg 81%

    Tomorrow, 18 June, Tuesday

    Time Temperature Precipitation Wind Pressure Humidity
    00:00 +11°C° 0 mm 3 mps 748 mmHg 82%
    01:00 +10°C° 0 mm 3 mps 748 mmHg 84%
    02:00 +10°C° 0 mm 3 mps 748 mmHg 86%
    03:00 +9°C° 0 mm 3 mps 748 mmHg 89%
    04:00 +10°C° 0 mm 3 mps 748 mmHg 87%
    05:00 +11°C° 0 mm 3 mps 748 mmHg 85%
    06:00 +11°C° 0 mm 3 mps 748 mmHg 84%
    07:00 +13°C° 0 mm 3 mps 748 mmHg 80%
    08:00 +14°C° 0 mm 3 mps 748 mmHg 77%
    09:00 +16°C° 0 mm 3 mps 748 mmHg 74%
    10:00 +17°C° 0.1 mm 3 mps 748 mmHg 71%
    11:00 +18°C° 0.1 mm 3 mps 748 mmHg 69%
    12:00 +18°C° 0.1 mm 3 mps 747 mmHg 67%
    13:00 +19°C° 0.2 mm 3 mps 747 mmHg 67%
    14:00 +19°C° 0.2 mm 3 mps 747 mmHg 67%
    15:00 +19°C° 0.2 mm 3 mps 747 mmHg 67%
    16:00 +18°C° 0.3 mm 2 mps 746 mmHg 72%
    17:00 +17°C° 0.3 mm 2 mps 746 mmHg 77%
    18:00 +16°C° 0.3 mm 1 mps 746 mmHg 82%
    19:00 +15°C° 0.6 mm 1 mps 746 mmHg 84%
    20:00 +15°C° 0.6 mm 1 mps 746 mmHg 87%
    21:00 +13°C° 0.6 mm 0 mps 746 mmHg 89%
    22:00 +13°C° 0.2 mm 0 mps 746 mmHg 89%
    23:00 +13°C° 0.2 mm 0 mps 745 mmHg 90%

    Day after tomorrow, 19 June, Wednesday

    Time Temperature Precipitation Wind Pressure Humidity
    00:00 +13°C° 0.2 mm 0 mps 745 mmHg 90%
    01:00 +14°C° 0 mm 1 mps 745 mmHg 91%
    02:00 +13°C° 0 mm 1 mps 744 mmHg 91%
    03:00 +13°C° 0 mm 1 mps 744 mmHg 92%
    04:00 +13°C° 0 mm 1 mps 744 mmHg 91%
    05:00 +14°C° 0 mm 1 mps 743 mmHg 91%
    06:00 +14°C° 0 mm 2 mps 743 mmHg 90%
    07:00 +14°C° 0.1 mm 2 mps 743 mmHg 87%
    08:00 +15°C° 0.1 mm 2 mps 743 mmHg 85%
    09:00 +16°C° 0.1 mm 2 mps 742 mmHg 82%
    10:00 +15°C° 1.1 mm 2 mps 742 mmHg 85%
    11:00 +15°C° 1.1 mm 2 mps 742 mmHg 87%
    12:00 +14°C° 1.1 mm 2 mps 742 mmHg 90%
    13:00 +14°C° 0.3 mm 2 mps 742 mmHg 89%
    14:00 +14°C° 0.3 mm 2 mps 742 mmHg 89%
    15:00 +13°C° 0.3 mm 2 mps 742 mmHg 89%
    16:00 +14°C° 0.2 mm 2 mps 742 mmHg 88%
    17:00 +14°C° 0.2 mm 2 mps 742 mmHg 87%
    18:00 +14°C° 0.2 mm 2 mps 742 mmHg 86%
    19:00 +13°C° 0 mm 2 mps 743 mmHg 85%
    20:00 +13°C° 0 mm 2 mps 743 mmHg 84%
    21:00 +12°C° 0 mm 2 mps 744 mmHg 83%
    22:00 +12°C° 0 mm 2 mps 744 mmHg 86%
    23:00 +10°C° 0 mm 2 mps 744 mmHg 88%

    20 June, Thursday

    Time Temperature Precipitation Wind Pressure Humidity
    00:00 +10°C° 0 mm 2 mps 744 mmHg 90%
    01:00 +10°C° 0 mm 2 mps 744 mmHg 91%
    02:00 +9°C° 0 mm 2 mps 744 mmHg 91%
    03:00 +9°C° 0 mm 2 mps 744 mmHg 92%
    04:00 +10°C° 0 mm 2 mps 744 mmHg 90%
    05:00 +10°C° 0 mm 3 mps 744 mmHg 89%
    06:00 +11°C° 0 mm 3 mps 744 mmHg 87%
    07:00 +12°C° 0 mm 3 mps 745 mmHg 81%
    08:00 +13°C° 0 mm 4 mps 745 mmHg 75%
    09:00 +14°C° 0 mm 4 mps 745 mmHg 69%
    10:00 +14°C° 0.3 mm 5 mps 745 mmHg 68%
    11:00 +15°C° 0.3 mm 5 mps 745 mmHg 66%
    12:00 +15°C° 0.3 mm 6 mps 745 mmHg 65%
    13:00 +15°C° 0.3 mm 5 mps 745 mmHg 63%
    14:00 +16°C° 0.3 mm 5 mps 745 mmHg 61%
    15:00 +16°C° 0.3 mm 5 mps 745 mmHg 59%
    16:00 +15°C° 0.4 mm 5 mps 745 mmHg 63%
    17:00 +15°C° 0.4 mm 4 mps 745 mmHg 67%
    18:00 +14°C° 0.4 mm 4 mps 745 mmHg 71%
    19:00 +13°C° 0.1 mm 4 mps 745 mmHg 73%
    20:00 +12°C° 0.1 mm 4 mps 745 mmHg 76%
    21:00 +11°C° 0.1 mm 4 mps 746 mmHg 78%
    22:00 +10°C° 0 mm 4 mps 746 mmHg 80%
    23:00 +10°C° 0 mm 4 mps 746 mmHg 82%

    21 June, Friday

    Time Temperature Precipitation Wind Pressure Humidity
    00:00 +8°C° 0 mm 4 mps 746 mmHg 84%
    01:00 +9°C° 0 mm 3 mps 746 mmHg 86%
    02:00 +8°C° 0 mm 3 mps 746 mmHg 89%
    03:00 +8°C° 0 mm 2 mps 746 mmHg 91%
    04:00 +9°C° 0 mm 3 mps 747 mmHg 90%
    05:00 +10°C° 0 mm 3 mps 747 mmHg 89%
    06:00 +10°C° 0 mm 3 mps 747 mmHg 87%
    07:00 +11°C° 0.1 mm 3 mps 747 mmHg 82%
    08:00 +12°C° 0.1 mm 4 mps 748 mmHg 76%
    09:00 +13°C° 0.1 mm 4 mps 748 mmHg 70%
    10:00 +14°C° 0.1 mm 5 mps 748 mmHg 65%
    11:00 +15°C° 0.1 mm 5 mps 748 mmHg 60%
    12:00 +16°C° 0.1 mm 5 mps 748 mmHg 54%
    13:00 +16°C° 0 mm 5 mps 749 mmHg 54%
    14:00 +16°C° 0 mm 5 mps 749 mmHg 53%
    15:00 +16°C° 0 mm 5 mps 749 mmHg 53%
    16:00 +15°C° 0 mm 5 mps 749 mmHg 56%
    17:00 +15°C° 0 mm 4 mps 749 mmHg 60%
    18:00 +14°C° 0 mm 4 mps 749 mmHg 63%
    19:00 +13°C° 0 mm 3 mps 750 mmHg 67%
    20:00 +12°C° 0 mm 2 mps 750 mmHg 72%
    21:00 +11°C° 0 mm 1 mps 751 mmHg 76%
    22:00 +10°C° 0 mm 1 mps 751 mmHg 78%
    23:00 +10°C° 0 mm 1 mps 751 mmHg 79%

    22 June, Saturday

    Time Temperature Precipitation Wind Pressure Humidity
    00:00 +8°C° 0 mm 0 mps 751 mmHg 81%
    01:00 +8°C° 0 mm 0 mps 751 mmHg 81%
    02:00 +8°C° 0 mm 0 mps 751 mmHg 81%
    03:00 +8°C° 0 mm 0 mps 751 mmHg 81%
    04:00 +9°C° 0 mm 0 mps 751 mmHg 78%
    05:00 +9°C° 0 mm 0 mps 752 mmHg 76%
    06:00 +10°C° 0 mm 0 mps 752 mmHg 73%
    07:00 +13°C° 0 mm 1 mps 752 mmHg 67%
    08:00 +14°C° 0 mm 1 mps 752 mmHg 61%
    09:00 +16°C° 0 mm 1 mps 752 mmHg 55%
    10:00 +17°C° 0 mm 2 mps 752 mmHg 52%
    11:00 +18°C° 0 mm 2 mps 752 mmHg 50%
    12:00 +19°C° 0 mm 2 mps 752 mmHg 47%
    13:00 +19°C° 0 mm 2 mps 751 mmHg 49%
    14:00 +19°C° 0 mm 2 mps 751 mmHg 50%
    15:00 +19°C° 0 mm 2 mps 751 mmHg 51%
    16:00 +18°C° 0.1 mm 3 mps 751 mmHg 56%
    17:00 +18°C° 0.1 mm 4 mps 751 mmHg 61%
    18:00 +17°C° 0.1 mm 4 mps 751 mmHg 67%
    19:00 +15°C° 0 mm 4 mps 751 mmHg 70%
    20:00 +13°C° 0 mm 4 mps 751 mmHg 73%
    21:00 +12°C° 0 mm 4 mps 751 mmHg 77%
    22:00 +12°C° 0 mm 3 mps 751 mmHg 78%
    23:00 +11°C° 0 mm 3 mps 751 mmHg 80%
    Show more